Weather History for KAZC - September, 2013

Change the Weather History Date:

Monday, September 2, 2013

  Actual Average (KCDC) Record (KCDC)
Temperature  
Mean Temperature 76 °F 67 °F  
Max Temperature 89 °F 84 °F 96 °F (1948)
Min Temperature 62 °F 51 °F 31 °F (1973)
Degree Days  
Heating Degree Days 0 1  
Month to date heating degree days 2  
Since 1 July heating degree days 11  
Cooling Degree Days 10 3  
Month to date cooling degree days 6  
Year to date cooling degree days 555  
Growing Degree Days 26 (Base 50)    
Moisture  
Dew Point 61 °F    
Average Humidity 68    
Maximum Humidity 96    
Minimum Humidity 30    
Precipitation  
Precipitation 0.00 in 0.03 in 0.26 in (1954)
Month to date precipitation 0.05  
Year to date precipitation 7.59  
Sea Level Pressure  
Sea Level Pressure 30.17 in    
Wind  
Wind Speed 2 mph (SE)    
Max Wind Speed 15 mph    
Max Gust Speed 25 mph    
Visibility 10 miles    
Events Rain    
T = Trace of Precipitation, MM = Missing Value Source: NWS Daily Summary

Daily Weather History Graph

Daily Weather History Graph

Search for Another Location

Airport or City:

Trip Planner

Search our weather history database for the weather conditions in past years. The results will help you decide how hot, cold, wet, or windy it might be!

Date:

Astronomy

Sep. 02, 2013 Rise Set
Actual Time 6:03 AM MST 6:58 PM MST
Civil Twilight 5:37 AM MST 7:25 PM MST
Nautical Twilight 5:06 AM MST 7:56 PM MST
Astronomical Twilight 4:33 AM MST 8:28 PM MST
Moon 3:26 AM MST (9/2) 5:12 PM MST (9/2)
Length of Visible Light 13h 47m
Length of Day
12h 54m
Waning Crescent, 7% of the Moon is Illuminated
Sep 2
Waning Crescent
Sep 5
New
Sep 12
First Quarter
Sep 19
Full
Sep 26
Last Quarter

Hourly Weather History & Observations

Time (MST) Temp. Heat Index Dew Point Humidity Pressure Visibility Wind Dir Wind Speed Gust Speed Precip Events Conditions
12:15 AM 65.3 °F - 63.5 °F 94% 30.17 in 10.0 mi Calm Calm - N/A   Clear
12:35 AM 65.3 °F - 63.3 °F 93% 30.16 in 10.0 mi Calm Calm - N/A   Clear
12:55 AM 64.8 °F - 62.8 °F 93% 30.16 in 10.0 mi Calm Calm - N/A   Clear
1:15 AM 65.1 °F - 63.0 °F 93% 30.16 in 10.0 mi Calm Calm - N/A   Clear
1:35 AM 65.3 °F - 63.0 °F 92% 30.16 in 10.0 mi Calm Calm - N/A   Clear
1:55 AM 64.9 °F - 62.8 °F 93% 30.16 in 10.0 mi Calm Calm - N/A   Clear
2:15 AM 64.6 °F - 62.8 °F 94% 30.16 in 10.0 mi Calm Calm - N/A   Clear
2:35 AM 64.2 °F - 62.2 °F 93% 30.17 in 10.0 mi Calm Calm - N/A   Clear
2:55 AM 62.8 °F - 61.3 °F 95% 30.17 in 10.0 mi SE 4.6 mph - N/A   Clear
3:15 AM 62.4 °F - 61.3 °F 96% 30.18 in 10.0 mi Calm Calm - N/A   Clear
3:35 AM 62.8 °F - 61.5 °F 96% 30.18 in 10.0 mi Calm Calm - N/A   Clear
3:55 AM 63.0 °F - 61.7 °F 96% 30.18 in 10.0 mi Calm Calm - N/A   Mostly Cloudy
4:15 AM 63.3 °F - 61.9 °F 95% 30.18 in 10.0 mi Calm Calm - N/A   Scattered Clouds
4:35 AM 62.8 °F - 61.5 °F 96% 30.18 in 10.0 mi SSE 4.6 mph - N/A   Clear
4:55 AM 62.4 °F - 61.2 °F 96% 30.18 in 10.0 mi Calm Calm - N/A   Clear
5:15 AM 62.6 °F - 61.3 °F 96% 30.18 in 10.0 mi SE 3.5 mph - N/A   Clear
5:35 AM 62.8 °F - 61.7 °F 96% 30.18 in 10.0 mi Calm Calm - N/A   Clear
5:55 AM 62.8 °F - 61.5 °F 96% 30.19 in 10.0 mi SSE 3.5 mph - N/A   Clear
6:15 AM 62.8 °F - 61.5 °F 96% 30.19 in 10.0 mi ESE 3.5 mph - N/A   Clear
6:35 AM 62.6 °F - 61.3 °F 96% 30.20 in 10.0 mi SSE 4.6 mph - N/A   Clear
6:55 AM 64.9 °F - 63.1 °F 94% 30.20 in 10.0 mi SE 4.6 mph - N/A   Clear
7:15 AM 67.8 °F - 64.2 °F 88% 30.21 in 10.0 mi SE 4.6 mph - N/A   Clear
7:35 AM 70.2 °F - 64.6 °F 82% 30.21 in 10.0 mi East 3.5 mph - N/A   Clear
7:55 AM 71.6 °F - 64.4 °F 78% 30.22 in 10.0 mi Calm Calm - N/A   Clear
8:15 AM 73.8 °F - 64.6 °F 73% 30.22 in 10.0 mi Calm Calm - N/A   Clear
8:35 AM 76.6 °F - 64.2 °F 65% 30.22 in 10.0 mi SE 6.9 mph - N/A   Scattered Clouds
8:55 AM 77.5 °F - 63.3 °F 61% 30.22 in 10.0 mi SE 5.8 mph - N/A   Scattered Clouds
9:15 AM 78.4 °F - 63.3 °F 60% 30.22 in 10.0 mi SE 4.6 mph - N/A   Clear
9:35 AM 79.7 °F - 63.7 °F 58% 30.22 in 10.0 mi SE 4.6 mph - N/A   Clear
9:55 AM 80.6 °F 82.0 °F 63.7 °F 56% 30.22 in 10.0 mi Calm Calm - N/A   Clear
10:15 AM 81.5 °F 82.8 °F 63.1 °F 54% 30.22 in 10.0 mi SSE 4.6 mph - N/A   Clear
10:35 AM 82.2 °F 83.2 °F 62.6 °F 51% 30.22 in 10.0 mi Calm Calm - N/A   Clear
10:55 AM 82.9 °F 83.7 °F 62.2 °F 49% 30.21 in 10.0 mi ESE 4.6 mph - N/A   Clear
11:15 AM 83.5 °F 83.9 °F 61.2 °F 47% 30.21 in 10.0 mi Calm Calm - N/A   Clear
11:35 AM 84.2 °F 84.2 °F 60.1 °F 44% 30.20 in 10.0 mi SE 3.5 mph - N/A   Clear
11:55 AM 84.6 °F 84.6 °F 60.4 °F 44% 30.20 in 10.0 mi SSE 4.6 mph - N/A   Scattered Clouds
12:15 PM 85.1 °F 84.3 °F 57.4 °F 39% 30.19 in 10.0 mi ENE 3.5 mph - N/A   Scattered Clouds
12:35 PM 85.3 °F 84.4 °F 57.6 °F 39% 30.18 in 10.0 mi Calm Calm - N/A   Scattered Clouds
12:55 PM 86.2 °F 85.0 °F 57.0 °F 37% 30.18 in 10.0 mi SW 4.6 mph - N/A   Scattered Clouds
1:15 PM 87.8 °F 86.1 °F 55.6 °F 33% 30.17 in 10.0 mi SSW 5.8 mph - N/A   Scattered Clouds
1:35 PM 88.3 °F 86.5 °F 54.9 °F 32% 30.16 in 10.0 mi WSW 9.2 mph - N/A   Clear
1:55 PM 88.2 °F - 52.9 °F 30% 30.15 in 10.0 mi Calm Calm - N/A   Clear
2:15 PM 88.3 °F 86.3 °F 53.8 °F 31% 30.15 in 10.0 mi SSE 3.5 mph - N/A   Clear
2:35 PM 89.6 °F 87.5 °F 54.5 °F 30% 30.13 in 10.0 mi West 3.5 mph - N/A   Scattered Clouds
2:55 PM 88.7 °F 86.5 °F 53.6 °F 30% 30.13 in 10.0 mi Calm Calm - N/A   Clear
3:15 PM 88.3 °F 86.3 °F 54.5 °F 31% 30.12 in 10.0 mi Calm Calm - N/A   Scattered Clouds
3:35 PM 86.4 °F 84.5 °F 54.0 °F 33% 30.12 in 10.0 mi SSW 8.1 mph - N/A   Mostly Cloudy
3:55 PM 84.9 °F 83.7 °F 55.8 °F 37% 30.13 in 10.0 mi SSW 15.0 mph 25.3 mph N/A   Mostly Cloudy
4:15 PM 81.0 °F 81.8 °F 61.3 °F 51% 30.11 in 10.0 mi WSW 4.6 mph - N/A Rain Light Rain
4:35 PM 83.8 °F 84.5 °F 62.4 °F 48% 30.11 in 10.0 mi WSW 9.2 mph - N/A   Mostly Cloudy
4:55 PM 85.6 °F 85.2 °F 59.2 °F 41% 30.11 in 10.0 mi WNW 9.2 mph - N/A   Clear
5:15 PM 85.5 °F 85.0 °F 59.5 °F 41% 30.11 in 10.0 mi Calm Calm - N/A   Clear
5:35 PM 85.1 °F 84.6 °F 58.8 °F 41% 30.11 in 10.0 mi Calm Calm - N/A   Clear
5:55 PM 84.2 °F 83.7 °F 58.5 °F 41% 30.11 in 10.0 mi WNW 4.6 mph - N/A   Clear
6:15 PM 83.3 °F 83.2 °F 59.0 °F 44% 30.11 in 10.0 mi Calm Calm - N/A   Clear
6:35 PM 82.4 °F 82.7 °F 60.4 °F 47% 30.11 in 10.0 mi Calm Calm - N/A   Clear
6:55 PM 81.5 °F 82.5 °F 62.1 °F 52% 30.11 in 10.0 mi Calm Calm - N/A   Clear
7:15 PM 78.4 °F - 64.6 °F 62% 30.11 in 10.0 mi Calm Calm - N/A   Clear
7:35 PM 75.6 °F - 64.2 °F 68% 30.12 in 10.0 mi NNE 3.5 mph - N/A   Clear
7:55 PM 74.3 °F - 63.3 °F 68% 30.13 in 10.0 mi NNE 4.6 mph - N/A   Clear
8:15 PM 73.2 °F - 63.5 °F 71% 30.13 in 10.0 mi NNE 5.8 mph - N/A   Clear
8:35 PM 72.1 °F - 63.9 °F 75% 30.15 in 10.0 mi NE 6.9 mph - N/A   Clear
8:55 PM 71.1 °F - 64.2 °F 79% 30.15 in 10.0 mi Calm Calm - N/A   Clear
9:15 PM 70.2 °F - 64.8 °F 83% 30.16 in 10.0 mi Calm Calm - N/A   Clear
9:35 PM 69.3 °F - 64.6 °F 85% 30.16 in 10.0 mi ESE 4.6 mph - N/A   Scattered Clouds
9:55 PM 69.1 °F - 63.5 °F 82% 30.16 in 10.0 mi Calm Calm - N/A   Scattered Clouds
10:15 PM 69.6 °F - 63.3 °F 80% 30.16 in 10.0 mi Calm Calm - N/A   Scattered Clouds
10:35 PM 68.5 °F - 62.8 °F 82% 30.16 in 10.0 mi Calm Calm - N/A   Clear
10:55 PM 68.5 °F - 62.1 °F 80% 30.16 in 10.0 mi Calm Calm - N/A   Clear
11:15 PM 68.5 °F - 61.9 °F 79% 30.16 in 10.0 mi SSE 5.8 mph - N/A   Clear
11:35 PM 66.9 °F - 62.1 °F 84% 30.17 in 10.0 mi SSE 6.9 mph - N/A   Clear
11:55 PM 66.4 °F - 61.7 °F 85% 30.17 in 10.0 mi ESE 5.8 mph - N/A   Clear